Tracking 20369 objects as of 16-Feb-2020
HD Live streaming from Space Station
objects crossing your sky now

METEOR 2-11 DEB

Track METEOR 2-11 DEB now!
10-day predictions


NORAD ID: 40704
Int'l Code: 1984-072F
Perigee: 920.5 km
Apogee: 959.2 km
Inclination: 82.5 °
Period: 103.7 minutes
Semi major axis: 7310 km
RCS: Unknown
Launch date: July 5, 1984
Source: Commonwealth of Independent States (former USSR) (CIS)
Launch site: PLESETSK MISSILE AND SPACE COMPLEX (PKMTR)

Note: This is SATELLITE DEBRIS
aabbcc
Your satellite tracking list
Your tracking list is empty




NASA's NSSDC Master Catalog

Two Line Element Set (TLE):
1 40704U 84072F   20046.80055603 -.00000314 +00000-0 -27237-3 0  9999
2 40704 082.5209 075.5519 0026441 068.5114 291.8864 13.88832352245425
Source of the keplerian elements: AFSPC